Time,TemperatureF,DewpointF,PressureIn,WindDirection,WindDirectionDegrees,WindSpeedMPH,WindSpeedGustMPH,Humidity,HourlyPrecipIn,Conditions,Clouds,dailyrainin,SoftwareType,DateUTC
2013-06-20 00:01:00,64.4,63.8,29.93,North,-999,-999.0,-999.0,98,0.00,,,0.00,tws,2013-06-20 04:01:00,
2013-06-20 00:07:00,64.3,63.6,29.93,North,-999,-999.0,-999.0,97,0.00,,,0.00,tws,2013-06-20 04:07:00,
2013-06-20 00:11:00,64.2,63.5,29.93,North,-999,-999.0,-999.0,97,0.00,,,0.00,tws,2013-06-20 04:11:00,
2013-06-20 00:17:00,64.1,63.5,29.93,North,-999,-999.0,-999.0,97,0.00,,,0.00,tws,2013-06-20 04:17:00,
2013-06-20 00:21:00,64.0,63.4,29.93,North,-999,-999.0,-999.0,97,0.00,,,0.00,tws,2013-06-20 04:21:00,
2013-06-20 00:27:00,63.8,63.2,29.93,North,-999,-999.0,-999.0,97,0.00,,,0.00,tws,2013-06-20 04:27:00,
2013-06-20 00:32:00,63.8,63.1,29.93,North,-999,-999.0,-999.0,97,0.00,,,0.00,tws,2013-06-20 04:32:00,
2013-06-20 00:36:00,63.7,63.0,29.93,North,-999,-999.0,-999.0,97,0.00,,,0.00,tws,2013-06-20 04:36:00,
2013-06-20 00:42:00,63.6,63.0,29.93,North,-999,-999.0,-999.0,97,0.00,,,0.00,tws,2013-06-20 04:42:00,
2013-06-20 00:46:00,63.5,62.9,29.93,North,-999,-999.0,-999.0,98,0.00,,,0.00,tws,2013-06-20 04:46:00,
2013-06-20 00:52:00,63.4,62.8,29.93,North,-999,-999.0,-999.0,97,0.00,,,0.00,tws,2013-06-20 04:52:00,
2013-06-20 00:57:00,63.3,62.6,29.93,North,-999,-999.0,-999.0,97,0.00,,,0.00,tws,2013-06-20 04:57:00,
2013-06-20 01:01:00,63.1,62.5,29.93,North,-999,-999.0,-999.0,97,0.00,,,0.00,tws,2013-06-20 05:01:00,
2013-06-20 01:07:00,63.0,62.4,29.93,North,-999,-999.0,-999.0,97,0.00,,,0.00,tws,2013-06-20 05:07:00,
2013-06-20 01:11:00,63.0,62.4,29.93,North,-999,-999.0,-999.0,97,0.00,,,0.00,tws,2013-06-20 05:11:00,
2013-06-20 01:17:00,63.0,62.5,29.93,North,-999,-999.0,-999.0,98,0.00,,,0.00,tws,2013-06-20 05:17:00,
2013-06-20 01:22:00,62.9,62.4,29.93,North,-999,-999.0,-999.0,98,0.00,,,0.00,tws,2013-06-20 05:22:00,
2013-06-20 01:26:00,62.9,62.4,29.93,North,-999,-999.0,-999.0,98,0.00,,,0.00,tws,2013-06-20 05:26:00,
2013-06-20 01:32:00,62.7,62.2,29.93,North,-999,-999.0,-999.0,98,0.00,,,0.00,tws,2013-06-20 05:32:00,
2013-06-20 01:36:00,62.7,62.1,29.93,North,-999,-999.0,-999.0,98,0.00,,,0.00,tws,2013-06-20 05:36:00,
2013-06-20 01:42:00,62.7,62.1,29.93,North,-999,-999.0,-999.0,97,0.00,,,0.00,tws,2013-06-20 05:42:00,
2013-06-20 01:47:00,62.7,62.1,29.93,North,-999,-999.0,-999.0,98,0.00,,,0.00,tws,2013-06-20 05:47:00,
2013-06-20 01:51:00,62.6,62.0,29.92,North,-999,-999.0,-999.0,97,0.00,,,0.00,tws,2013-06-20 05:51:00,
2013-06-20 01:57:00,62.6,62.1,29.92,North,-999,-999.0,-999.0,98,0.00,,,0.00,tws,2013-06-20 05:57:00,
2013-06-20 02:01:00,62.6,62.0,29.92,North,-999,-999.0,-999.0,98,0.00,,,0.00,tws,2013-06-20 06:01:00,
2013-06-20 02:07:00,62.5,61.9,29.92,North,-999,-999.0,-999.0,97,0.00,,,0.00,tws,2013-06-20 06:07:00,
2013-06-20 02:12:00,62.4,61.8,29.92,North,-999,-999.0,-999.0,97,0.00,,,0.00,tws,2013-06-20 06:12:00,
2013-06-20 02:16:00,62.3,61.7,29.92,North,-999,-999.0,-999.0,98,0.00,,,0.00,tws,2013-06-20 06:16:00,
2013-06-20 02:22:00,62.3,61.7,29.92,North,-999,-999.0,-999.0,98,0.00,,,0.00,tws,2013-06-20 06:22:00,
2013-06-20 02:26:00,62.1,61.6,29.92,North,-999,-999.0,-999.0,98,0.00,,,0.00,tws,2013-06-20 06:26:00,
2013-06-20 02:32:00,62.1,61.5,29.92,North,-999,-999.0,-999.0,98,0.00,,,0.00,tws,2013-06-20 06:32:00,
2013-06-20 02:37:00,61.9,61.3,29.93,North,-999,-999.0,-999.0,98,0.00,,,0.00,tws,2013-06-20 06:37:00,
2013-06-20 02:41:00,61.7,61.1,29.93,North,-999,-999.0,-999.0,97,0.00,,,0.00,tws,2013-06-20 06:41:00,
2013-06-20 02:47:00,61.5,61.0,29.93,North,-999,-999.0,-999.0,98,0.00,,,0.00,tws,2013-06-20 06:47:00,
2013-06-20 02:52:00,61.5,60.9,29.93,North,-999,-999.0,-999.0,98,0.00,,,0.00,tws,2013-06-20 06:52:00,
2013-06-20 02:57:00,61.4,60.9,29.93,North,-999,-999.0,-999.0,98,0.00,,,0.00,tws,2013-06-20 06:57:00,
2013-06-20 03:02:00,61.4,60.8,29.93,North,-999,-999.0,-999.0,98,0.00,,,0.00,tws,2013-06-20 07:02:00,
2013-06-20 03:06:00,61.4,60.8,29.93,North,-999,-999.0,-999.0,98,0.00,,,0.00,tws,2013-06-20 07:06:00,
2013-06-20 03:12:00,61.4,60.8,29.93,North,-999,-999.0,-999.0,98,0.00,,,0.00,tws,2013-06-20 07:12:00,
2013-06-20 03:17:00,61.5,60.9,29.93,North,-999,-999.0,-999.0,98,0.00,,,0.00,tws,2013-06-20 07:17:00,
2013-06-20 03:21:00,61.4,60.9,29.93,North,-999,-999.0,-999.0,98,0.00,,,0.00,tws,2013-06-20 07:21:00,
2013-06-20 03:27:00,61.4,60.8,29.93,North,-999,-999.0,-999.0,98,0.00,,,0.00,tws,2013-06-20 07:27:00,
2013-06-20 03:32:00,61.4,60.8,29.93,North,-999,-999.0,-999.0,98,0.00,,,0.00,tws,2013-06-20 07:32:00,
2013-06-20 03:37:00,61.3,60.8,29.93,North,-999,-999.0,-999.0,98,0.00,,,0.00,tws,2013-06-20 07:37:00,
2013-06-20 03:42:00,61.3,60.7,29.93,North,-999,-999.0,-999.0,98,0.00,,,0.00,tws,2013-06-20 07:42:00,
2013-06-20 03:46:00,61.4,60.8,29.93,North,-999,-999.0,-999.0,98,0.00,,,0.00,tws,2013-06-20 07:46:00,
2013-06-20 03:52:00,61.5,60.9,29.93,North,-999,-999.0,-999.0,98,0.00,,,0.00,tws,2013-06-20 07:52:00,
2013-06-20 03:57:00,61.5,60.9,29.93,North,-999,-999.0,-999.0,98,0.00,,,0.00,tws,2013-06-20 07:57:00,
2013-06-20 04:02:00,61.5,60.9,29.93,North,-999,-999.0,-999.0,98,0.00,,,0.00,tws,2013-06-20 08:02:00,
2013-06-20 04:07:00,61.5,60.9,29.93,North,-999,-999.0,-999.0,98,0.00,,,0.00,tws,2013-06-20 08:07:00,
2013-06-20 04:12:00,61.5,61.0,29.93,North,-999,-999.0,-999.0,98,0.00,,,0.00,tws,2013-06-20 08:12:00,
2013-06-20 04:17:00,61.6,61.1,29.93,North,-999,-999.0,-999.0,98,0.00,,,0.00,tws,2013-06-20 08:17:00,
2013-06-20 04:21:00,61.6,61.1,29.93,North,-999,-999.0,-999.0,98,0.00,,,0.00,tws,2013-06-20 08:21:00,
2013-06-20 04:27:00,61.6,61.1,29.94,North,-999,-999.0,-999.0,98,0.00,,,0.00,tws,2013-06-20 08:27:00,
2013-06-20 04:32:00,61.7,61.2,29.94,North,-999,-999.0,-999.0,98,0.00,,,0.00,tws,2013-06-20 08:32:00,
2013-06-20 04:37:00,61.8,61.3,29.94,North,-999,-999.0,-999.0,98,0.00,,,0.00,tws,2013-06-20 08:37:00,
2013-06-20 04:42:00,61.8,61.3,29.94,North,-999,-999.0,-999.0,98,0.00,,,0.00,tws,2013-06-20 08:42:00,
2013-06-20 04:47:00,61.9,61.4,29.94,North,-999,-999.0,-999.0,98,0.00,,,0.00,tws,2013-06-20 08:47:00,
2013-06-20 04:52:00,62.0,61.4,29.95,North,-999,-999.0,-999.0,98,0.00,,,0.00,tws,2013-06-20 08:52:00,
2013-06-20 04:57:00,61.9,61.4,29.95,North,-999,-999.0,-999.0,98,0.00,,,0.00,tws,2013-06-20 08:57:00,
2013-06-20 05:01:00,61.8,61.3,29.95,North,-999,-999.0,-999.0,98,0.00,,,0.00,tws,2013-06-20 09:01:00,
2013-06-20 05:07:00,61.8,61.3,29.95,North,-999,-999.0,-999.0,98,0.00,,,0.00,tws,2013-06-20 09:07:00,
2013-06-20 05:12:00,61.8,61.3,29.95,North,-999,-999.0,-999.0,98,0.00,,,0.00,tws,2013-06-20 09:12:00,
2013-06-20 05:17:00,61.8,61.3,29.95,North,-999,-999.0,-999.0,98,0.00,,,0.00,tws,2013-06-20 09:17:00,
2013-06-20 05:22:00,61.8,61.2,29.95,North,-999,-999.0,-999.0,98,0.00,,,0.00,tws,2013-06-20 09:22:00,
2013-06-20 05:27:00,61.7,61.2,29.95,North,-999,-999.0,-999.0,98,0.00,,,0.00,tws,2013-06-20 09:27:00,
2013-06-20 05:32:00,61.6,61.1,29.95,North,-999,-999.0,-999.0,98,0.00,,,0.00,tws,2013-06-20 09:32:00,
2013-06-20 05:37:00,61.6,61.1,29.95,North,-999,-999.0,-999.0,98,0.00,,,0.00,tws,2013-06-20 09:37:00,
2013-06-20 05:42:00,61.5,61.0,29.95,North,-999,-999.0,-999.0,98,0.00,,,0.00,tws,2013-06-20 09:42:00,
2013-06-20 05:47:00,61.5,60.9,29.95,North,-999,-999.0,-999.0,98,0.00,,,0.00,tws,2013-06-20 09:47:00,
2013-06-20 05:52:00,61.4,60.9,29.96,North,-999,-999.0,-999.0,98,0.00,,,0.00,tws,2013-06-20 09:52:00,
2013-06-20 05:57:00,61.4,60.9,29.96,North,-999,-999.0,-999.0,98,0.00,,,0.00,tws,2013-06-20 09:57:00,
2013-06-20 06:02:00,61.4,60.9,29.96,North,-999,-999.0,-999.0,98,0.00,,,0.00,tws,2013-06-20 10:02:00,
2013-06-20 06:06:00,61.4,60.8,29.96,North,-999,-999.0,-999.0,98,0.00,,,0.00,tws,2013-06-20 10:06:00,
2013-06-20 06:12:00,61.4,60.9,29.96,North,-999,-999.0,-999.0,98,0.00,,,0.00,tws,2013-06-20 10:12:00,
2013-06-20 06:17:00,61.5,60.9,29.96,North,-999,-999.0,-999.0,98,0.00,,,0.00,tws,2013-06-20 10:17:00,
2013-06-20 06:22:00,61.6,61.1,29.96,North,-999,-999.0,-999.0,98,0.00,,,0.00,tws,2013-06-20 10:22:00,
2013-06-20 06:27:00,61.7,61.2,29.97,North,-999,-999.0,-999.0,98,0.00,,,0.00,tws,2013-06-20 10:27:00,
2013-06-20 06:32:00,61.8,61.3,29.97,North,-999,-999.0,-999.0,98,0.00,,,0.00,tws,2013-06-20 10:32:00,
2013-06-20 06:37:00,61.8,61.4,29.97,North,-999,-999.0,-999.0,98,0.00,,,0.00,tws,2013-06-20 10:37:00,
2013-06-20 06:42:00,61.8,61.3,29.97,North,-999,-999.0,-999.0,98,0.00,,,0.00,tws,2013-06-20 10:42:00,
2013-06-20 06:47:00,61.8,61.4,29.97,North,-999,-999.0,-999.0,98,0.00,,,0.00,tws,2013-06-20 10:47:00,
2013-06-20 06:51:00,61.9,61.4,29.97,North,-999,-999.0,-999.0,98,0.00,,,0.00,tws,2013-06-20 10:51:00,
2013-06-20 06:57:00,62.0,61.4,29.97,North,-999,-999.0,-999.0,98,0.00,,,0.00,tws,2013-06-20 10:57:00,
2013-06-20 07:02:00,62.1,61.6,29.97,North,-999,-999.0,-999.0,98,0.00,,,0.00,tws,2013-06-20 11:02:00,
2013-06-20 07:07:00,62.2,61.7,29.98,North,-999,-999.0,-999.0,98,0.00,,,0.00,tws,2013-06-20 11:07:00,
2013-06-20 07:12:00,62.2,61.7,29.97,North,-999,-999.0,-999.0,98,0.00,,,0.00,tws,2013-06-20 11:12:00,
2013-06-20 07:17:00,62.2,61.8,29.97,North,-999,-999.0,-999.0,98,0.00,,,0.00,tws,2013-06-20 11:17:00,
2013-06-20 07:22:00,62.4,61.9,29.97,North,-999,-999.0,-999.0,98,0.00,,,0.00,tws,2013-06-20 11:22:00,
2013-06-20 07:27:00,62.6,62.1,29.97,North,-999,-999.0,-999.0,98,0.00,,,0.00,tws,2013-06-20 11:27:00,
2013-06-20 07:32:00,62.7,62.3,29.98,North,-999,-999.0,-999.0,98,0.00,,,0.00,tws,2013-06-20 11:32:00,
2013-06-20 07:37:00,62.9,62.3,29.98,North,-999,-999.0,-999.0,98,0.00,,,0.00,tws,2013-06-20 11:37:00,
2013-06-20 07:42:00,63.1,62.6,29.98,North,-999,-999.0,-999.0,98,0.00,,,0.00,tws,2013-06-20 11:42:00,
2013-06-20 07:47:00,63.3,62.8,29.98,North,-999,-999.0,-999.0,98,0.00,,,0.00,tws,2013-06-20 11:47:00,
2013-06-20 07:52:00,63.5,63.0,29.99,North,-999,-999.0,-999.0,98,0.00,,,0.00,tws,2013-06-20 11:52:00,
2013-06-20 07:57:00,63.6,63.0,29.99,North,-999,-999.0,-999.0,97,0.00,,,0.00,tws,2013-06-20 11:57:00,
2013-06-20 08:02:00,64.0,63.4,29.99,North,-999,-999.0,-999.0,98,0.00,,,0.00,tws,2013-06-20 12:02:00,
2013-06-20 08:07:00,64.2,63.6,29.99,North,-999,-999.0,-999.0,98,0.00,,,0.00,tws,2013-06-20 12:07:00,
2013-06-20 08:12:00,64.3,63.8,29.99,North,-999,-999.0,-999.0,98,0.00,,,0.00,tws,2013-06-20 12:12:00,
2013-06-20 08:17:00,64.5,63.9,30.00,North,-999,-999.0,-999.0,98,0.00,,,0.00,tws,2013-06-20 12:17:00,
2013-06-20 08:22:00,64.6,64.0,30.00,North,-999,-999.0,-999.0,98,0.00,,,0.00,tws,2013-06-20 12:22:00,
2013-06-20 08:27:00,64.7,64.1,30.00,North,-999,-999.0,-999.0,97,0.00,,,0.00,tws,2013-06-20 12:27:00,
2013-06-20 08:32:00,64.8,64.2,30.00,North,-999,-999.0,-999.0,97,0.00,,,0.00,tws,2013-06-20 12:32:00,
2013-06-20 08:37:00,64.9,64.3,30.00,North,-999,-999.0,-999.0,97,0.00,,,0.00,tws,2013-06-20 12:37:00,
2013-06-20 08:42:00,65.0,64.5,30.00,North,-999,-999.0,-999.0,98,0.00,,,0.00,tws,2013-06-20 12:42:00,
2013-06-20 08:47:00,65.1,64.4,30.01,North,-999,-999.0,-999.0,97,0.00,,,0.00,tws,2013-06-20 12:47:00,
2013-06-20 08:52:00,65.2,64.5,30.01,North,-999,-999.0,-999.0,97,0.00,,,0.00,tws,2013-06-20 12:52:00,
2013-06-20 08:57:00,65.2,64.5,30.01,North,-999,-999.0,-999.0,97,0.00,,,0.00,tws,2013-06-20 12:57:00,
2013-06-20 09:02:00,65.2,64.6,30.01,North,-999,-999.0,-999.0,97,0.00,,,0.00,tws,2013-06-20 13:02:00,
2013-06-20 09:07:00,65.3,64.6,30.01,North,-999,-999.0,-999.0,97,0.00,,,0.00,tws,2013-06-20 13:07:00,
2013-06-20 09:12:00,65.3,64.6,30.01,North,-999,-999.0,-999.0,97,0.00,,,0.00,tws,2013-06-20 13:12:00,
2013-06-20 09:17:00,65.3,64.6,30.02,North,-999,-999.0,-999.0,97,0.00,,,0.00,tws,2013-06-20 13:17:00,
2013-06-20 09:22:00,65.3,64.6,30.02,North,-999,-999.0,-999.0,97,0.00,,,0.00,tws,2013-06-20 13:22:00,
2013-06-20 09:27:00,65.3,64.6,30.02,North,-999,-999.0,-999.0,97,0.00,,,0.00,tws,2013-06-20 13:27:00,
2013-06-20 09:32:00,65.4,64.6,30.01,North,-999,-999.0,-999.0,97,0.00,,,0.00,tws,2013-06-20 13:32:00,
2013-06-20 09:37:00,65.5,64.8,30.02,North,-999,-999.0,-999.0,97,0.00,,,0.00,tws,2013-06-20 13:37:00,
2013-06-20 09:42:00,65.5,64.8,30.02,North,-999,-999.0,-999.0,97,0.00,,,0.00,tws,2013-06-20 13:42:00,
2013-06-20 09:47:00,65.5,64.8,30.02,North,-999,-999.0,-999.0,97,0.00,,,0.00,tws,2013-06-20 13:47:00,
2013-06-20 09:52:00,65.6,64.9,30.02,North,-999,-999.0,-999.0,97,0.00,,,0.00,tws,2013-06-20 13:52:00,
2013-06-20 09:57:00,65.8,64.9,30.02,North,-999,-999.0,-999.0,97,0.00,,,0.00,tws,2013-06-20 13:57:00,
2013-06-20 10:02:00,65.9,65.0,30.02,North,-999,-999.0,-999.0,97,0.00,,,0.00,tws,2013-06-20 14:02:00,
2013-06-20 10:07:00,65.9,65.1,30.02,North,-999,-999.0,-999.0,97,0.00,,,0.00,tws,2013-06-20 14:07:00,
2013-06-20 10:12:00,66.0,65.2,30.02,North,-999,-999.0,-999.0,97,0.00,,,0.00,tws,2013-06-20 14:12:00,
2013-06-20 10:17:00,66.2,65.3,30.01,North,-999,-999.0,-999.0,97,0.00,,,0.00,tws,2013-06-20 14:17:00,
2013-06-20 10:22:00,66.4,65.5,30.01,North,-999,-999.0,-999.0,97,0.00,,,0.00,tws,2013-06-20 14:22:00,
2013-06-20 10:27:00,66.5,65.7,30.02,North,-999,-999.0,-999.0,97,0.00,,,0.00,tws,2013-06-20 14:27:00,
2013-06-20 10:32:00,66.6,65.7,30.02,North,-999,-999.0,-999.0,96,0.00,,,0.00,tws,2013-06-20 14:32:00,
2013-06-20 10:37:00,66.8,65.9,30.01,North,-999,-999.0,-999.0,96,0.00,,,0.00,tws,2013-06-20 14:37:00,
2013-06-20 10:42:00,67.1,66.1,30.02,North,-999,-999.0,-999.0,96,0.00,,,0.00,tws,2013-06-20 14:42:00,
2013-06-20 10:47:00,67.3,66.2,30.02,North,-999,-999.0,-999.0,96,0.00,,,0.00,tws,2013-06-20 14:47:00,
2013-06-20 10:52:00,67.4,66.3,30.02,North,-999,-999.0,-999.0,96,0.00,,,0.00,tws,2013-06-20 14:52:00,
2013-06-20 10:57:00,67.6,66.3,30.02,North,-999,-999.0,-999.0,95,0.00,,,0.00,tws,2013-06-20 14:57:00,
2013-06-20 11:02:00,67.8,66.5,30.02,North,-999,-999.0,-999.0,95,0.00,,,0.00,tws,2013-06-20 15:02:00,
2013-06-20 11:07:00,68.1,66.7,30.02,North,-999,-999.0,-999.0,95,0.00,,,0.00,tws,2013-06-20 15:07:00,
2013-06-20 11:12:00,68.3,66.8,30.02,North,-999,-999.0,-999.0,94,0.00,,,0.00,tws,2013-06-20 15:12:00,
2013-06-20 11:17:00,68.3,66.7,30.02,North,-999,-999.0,-999.0,94,0.00,,,0.00,tws,2013-06-20 15:17:00,
2013-06-20 11:22:00,68.3,66.6,30.02,North,-999,-999.0,-999.0,94,0.00,,,0.00,tws,2013-06-20 15:22:00,
2013-06-20 11:27:00,68.2,66.4,30.02,North,-999,-999.0,-999.0,93,0.00,,,0.00,tws,2013-06-20 15:27:00,
2013-06-20 11:32:00,68.3,66.5,30.03,North,-999,-999.0,-999.0,93,0.00,,,0.00,tws,2013-06-20 15:32:00,
2013-06-20 11:37:00,68.4,66.4,30.03,North,-999,-999.0,-999.0,93,0.00,,,0.00,tws,2013-06-20 15:37:00,
2013-06-20 11:42:00,68.8,66.9,30.03,North,-999,-999.0,-999.0,93,0.00,,,0.00,tws,2013-06-20 15:42:00,
2013-06-20 11:47:00,69.3,67.0,30.02,North,-999,-999.0,-999.0,92,0.00,,,0.00,tws,2013-06-20 15:47:00,
2013-06-20 11:52:00,70.0,67.7,30.03,North,-999,-999.0,-999.0,92,0.00,,,0.00,tws,2013-06-20 15:52:00,
2013-06-20 11:57:00,70.3,67.5,30.02,North,-999,-999.0,-999.0,90,0.00,,,0.00,tws,2013-06-20 15:57:00,
2013-06-20 12:02:00,70.5,67.7,30.02,North,-999,-999.0,-999.0,90,0.00,,,0.00,tws,2013-06-20 16:02:00,
2013-06-20 12:07:00,70.8,68.0,30.02,North,-999,-999.0,-999.0,90,0.00,,,0.00,tws,2013-06-20 16:07:00,
2013-06-20 12:12:00,71.3,68.3,30.02,North,-999,-999.0,-999.0,90,0.00,,,0.00,tws,2013-06-20 16:12:00,
2013-06-20 12:17:00,71.5,68.1,30.02,North,-999,-999.0,-999.0,88,0.00,,,0.00,tws,2013-06-20 16:17:00,
2013-06-20 12:22:00,71.5,67.6,30.02,North,-999,-999.0,-999.0,87,0.00,,,0.00,tws,2013-06-20 16:22:00,
2013-06-20 12:27:00,71.7,67.6,30.02,North,-999,-999.0,-999.0,86,0.00,,,0.00,tws,2013-06-20 16:27:00,
2013-06-20 12:32:00,72.2,68.2,30.02,North,-999,-999.0,-999.0,87,0.00,,,0.00,tws,2013-06-20 16:32:00,
2013-06-20 12:37:00,72.4,67.4,30.02,North,-999,-999.0,-999.0,84,0.00,,,0.00,tws,2013-06-20 16:37:00,
2013-06-20 12:42:00,72.4,66.9,30.02,North,-999,-999.0,-999.0,82,0.00,,,0.00,tws,2013-06-20 16:42:00,
2013-06-20 12:47:00,72.4,67.1,30.02,North,-999,-999.0,-999.0,83,0.00,,,0.00,tws,2013-06-20 16:47:00,
2013-06-20 12:52:00,72.6,66.6,30.02,North,-999,-999.0,-999.0,81,0.00,,,0.00,tws,2013-06-20 16:52:00,
2013-06-20 12:57:00,73.1,68.2,30.02,North,-999,-999.0,-999.0,84,0.00,,,0.00,tws,2013-06-20 16:57:00,
2013-06-20 13:02:00,73.5,68.5,30.02,North,-999,-999.0,-999.0,84,0.00,,,0.00,tws,2013-06-20 17:02:00,
2013-06-20 13:07:00,73.9,68.8,30.02,North,-999,-999.0,-999.0,83,0.00,,,0.00,tws,2013-06-20 17:07:00,
2013-06-20 13:12:00,74.3,68.0,30.02,North,-999,-999.0,-999.0,80,0.00,,,0.00,tws,2013-06-20 17:12:00,
2013-06-20 13:17:00,74.1,67.1,30.02,North,-999,-999.0,-999.0,78,0.00,,,0.00,tws,2013-06-20 17:17:00,
2013-06-20 13:22:00,74.2,68.4,30.02,North,-999,-999.0,-999.0,81,0.00,,,0.00,tws,2013-06-20 17:22:00,
2013-06-20 13:27:00,74.4,68.6,30.02,North,-999,-999.0,-999.0,81,0.00,,,0.00,tws,2013-06-20 17:27:00,
2013-06-20 13:32:00,74.5,68.4,30.02,North,-999,-999.0,-999.0,80,0.00,,,0.00,tws,2013-06-20 17:32:00,
2013-06-20 13:37:00,74.8,68.3,30.02,North,-999,-999.0,-999.0,80,0.00,,,0.00,tws,2013-06-20 17:37:00,
2013-06-20 13:42:00,75.0,68.4,30.02,North,-999,-999.0,-999.0,79,0.00,,,0.00,tws,2013-06-20 17:42:00,
2013-06-20 13:47:00,74.5,67.7,30.02,North,-999,-999.0,-999.0,79,0.00,,,0.00,tws,2013-06-20 17:47:00,
2013-06-20 13:52:00,74.1,67.8,30.02,North,-999,-999.0,-999.0,80,0.00,,,0.00,tws,2013-06-20 17:52:00,
2013-06-20 13:57:00,74.2,67.7,30.01,North,-999,-999.0,-999.0,79,0.00,,,0.00,tws,2013-06-20 17:57:00,
2013-06-20 14:02:00,74.8,68.8,30.01,North,-999,-999.0,-999.0,81,0.00,,,0.00,tws,2013-06-20 18:02:00,
2013-06-20 14:07:00,75.5,68.9,30.02,North,-999,-999.0,-999.0,79,0.00,,,0.00,tws,2013-06-20 18:07:00,
2013-06-20 14:12:00,76.0,68.5,30.01,North,-999,-999.0,-999.0,77,0.00,,,0.00,tws,2013-06-20 18:12:00,
2013-06-20 14:17:00,76.0,68.5,30.01,North,-999,-999.0,-999.0,77,0.00,,,0.00,tws,2013-06-20 18:17:00,
2013-06-20 14:27:00,75.7,67.6,30.01,North,-999,-999.0,-999.0,75,0.00,,,0.00,tws,2013-06-20 18:27:00,
2013-06-20 14:32:00,75.0,67.6,30.00,North,-999,-999.0,-999.0,77,0.00,,,0.00,tws,2013-06-20 18:32:00,
2013-06-20 14:37:00,74.4,67.1,30.01,North,-999,-999.0,-999.0,77,0.00,,,0.00,tws,2013-06-20 18:37:00,
2013-06-20 14:42:00,73.9,67.0,30.01,North,-999,-999.0,-999.0,78,0.00,,,0.00,tws,2013-06-20 18:42:00,
2013-06-20 14:47:00,73.7,67.1,30.00,North,-999,-999.0,-999.0,79,0.00,,,0.00,tws,2013-06-20 18:47:00,
2013-06-20 14:52:00,73.6,67.2,30.00,North,-999,-999.0,-999.0,80,0.00,,,0.00,tws,2013-06-20 18:52:00,
2013-06-20 14:57:00,73.4,67.7,30.00,North,-999,-999.0,-999.0,82,0.00,,,0.00,tws,2013-06-20 18:57:00,
2013-06-20 15:02:00,73.2,67.6,30.00,North,-999,-999.0,-999.0,82,0.00,,,0.00,tws,2013-06-20 19:02:00,
2013-06-20 15:07:00,73.0,67.4,30.00,North,-999,-999.0,-999.0,82,0.00,,,0.00,tws,2013-06-20 19:07:00,
2013-06-20 15:12:00,72.8,67.3,30.00,North,-999,-999.0,-999.0,82,0.00,,,0.00,tws,2013-06-20 19:12:00,
2013-06-20 15:17:00,72.9,67.5,30.00,North,-999,-999.0,-999.0,82,0.00,,,0.00,tws,2013-06-20 19:17:00,
2013-06-20 15:22:00,73.2,68.1,30.00,North,-999,-999.0,-999.0,83,0.00,,,0.00,tws,2013-06-20 19:22:00,
2013-06-20 15:27:00,73.4,68.1,30.00,North,-999,-999.0,-999.0,83,0.00,,,0.00,tws,2013-06-20 19:27:00,
2013-06-20 15:32:00,73.3,67.3,30.00,North,-999,-999.0,-999.0,81,0.00,,,0.00,tws,2013-06-20 19:32:00,
2013-06-20 15:37:00,73.4,67.1,30.00,North,-999,-999.0,-999.0,80,0.00,,,0.00,tws,2013-06-20 19:37:00,
2013-06-20 15:42:00,74.0,68.0,30.00,North,-999,-999.0,-999.0,81,0.00,,,0.00,tws,2013-06-20 19:42:00,
2013-06-20 15:47:00,74.6,67.6,29.99,North,-999,-999.0,-999.0,78,0.00,,,0.00,tws,2013-06-20 19:47:00,
2013-06-20 15:52:00,74.7,67.6,29.99,North,-999,-999.0,-999.0,78,0.00,,,0.00,tws,2013-06-20 19:52:00,
2013-06-20 15:57:00,74.3,67.4,30.00,North,-999,-999.0,-999.0,78,0.00,,,0.00,tws,2013-06-20 19:57:00,
2013-06-20 16:02:00,73.6,67.3,29.99,North,-999,-999.0,-999.0,80,0.00,,,0.00,tws,2013-06-20 20:02:00,
2013-06-20 16:07:00,73.4,67.4,29.99,North,-999,-999.0,-999.0,81,0.00,,,0.00,tws,2013-06-20 20:07:00,
2013-06-20 16:12:00,73.8,67.6,29.99,North,-999,-999.0,-999.0,80,0.00,,,0.00,tws,2013-06-20 20:12:00,
2013-06-20 16:17:00,74.2,67.7,29.99,North,-999,-999.0,-999.0,79,0.00,,,0.00,tws,2013-06-20 20:17:00,
2013-06-20 16:22:00,74.0,66.7,29.99,North,-999,-999.0,-999.0,77,0.00,,,0.00,tws,2013-06-20 20:22:00,
2013-06-20 16:27:00,73.9,66.6,29.99,North,-999,-999.0,-999.0,77,0.00,,,0.00,tws,2013-06-20 20:27:00,
2013-06-20 16:32:00,73.8,66.6,29.99,North,-999,-999.0,-999.0,77,0.00,,,0.00,tws,2013-06-20 20:32:00,
2013-06-20 16:37:00,73.6,67.3,29.99,North,-999,-999.0,-999.0,80,0.00,,,0.00,tws,2013-06-20 20:37:00,
2013-06-20 16:42:00,73.4,67.2,29.99,North,-999,-999.0,-999.0,80,0.00,,,0.00,tws,2013-06-20 20:42:00,
2013-06-20 16:47:00,73.2,67.0,29.99,North,-999,-999.0,-999.0,80,0.00,,,0.00,tws,2013-06-20 20:47:00,
2013-06-20 16:52:00,73.3,66.5,29.99,North,-999,-999.0,-999.0,78,0.00,,,0.00,tws,2013-06-20 20:52:00,
2013-06-20 16:57:00,73.5,66.4,29.99,North,-999,-999.0,-999.0,78,0.00,,,0.00,tws,2013-06-20 20:57:00,
2013-06-20 17:02:00,73.7,65.9,29.98,North,-999,-999.0,-999.0,76,0.00,,,0.00,tws,2013-06-20 21:02:00,
2013-06-20 17:07:00,73.7,66.1,29.98,North,-999,-999.0,-999.0,76,0.00,,,0.00,tws,2013-06-20 21:07:00,
2013-06-20 17:12:00,73.7,67.0,29.98,North,-999,-999.0,-999.0,79,0.00,,,0.00,tws,2013-06-20 21:12:00,
2013-06-20 17:17:00,73.8,66.6,29.98,North,-999,-999.0,-999.0,77,0.00,,,0.00,tws,2013-06-20 21:17:00,
2013-06-20 17:22:00,73.9,66.3,29.98,North,-999,-999.0,-999.0,76,0.00,,,0.00,tws,2013-06-20 21:22:00,
2013-06-20 17:27:00,74.1,66.1,29.98,North,-999,-999.0,-999.0,75,0.00,,,0.00,tws,2013-06-20 21:27:00,
2013-06-20 17:32:00,74.0,66.4,29.98,North,-999,-999.0,-999.0,76,0.00,,,0.00,tws,2013-06-20 21:32:00,
2013-06-20 17:37:00,74.1,66.3,29.97,North,-999,-999.0,-999.0,76,0.00,,,0.00,tws,2013-06-20 21:37:00,
2013-06-20 17:42:00,74.4,65.8,29.97,North,-999,-999.0,-999.0,74,0.00,,,0.00,tws,2013-06-20 21:42:00,
2013-06-20 17:47:00,74.9,66.5,29.97,North,-999,-999.0,-999.0,74,0.00,,,0.00,tws,2013-06-20 21:47:00,
2013-06-20 17:52:00,74.7,66.7,29.98,North,-999,-999.0,-999.0,75,0.00,,,0.00,tws,2013-06-20 21:52:00,
2013-06-20 17:57:00,73.9,66.3,29.98,North,-999,-999.0,-999.0,76,0.00,,,0.00,tws,2013-06-20 21:57:00,
2013-06-20 18:02:00,72.9,66.2,29.98,North,-999,-999.0,-999.0,79,0.00,,,0.00,tws,2013-06-20 22:02:00,
2013-06-20 18:07:00,72.0,66.8,29.98,North,-999,-999.0,-999.0,83,0.00,,,0.00,tws,2013-06-20 22:07:00,
2013-06-20 18:12:00,71.2,67.2,29.98,North,-999,-999.0,-999.0,87,0.00,,,0.00,tws,2013-06-20 22:12:00,
2013-06-20 18:17:00,70.6,67.3,29.98,North,-999,-999.0,-999.0,89,0.00,,,0.00,tws,2013-06-20 22:17:00,
2013-06-20 18:22:00,70.3,67.3,29.97,North,-999,-999.0,-999.0,90,0.00,,,0.00,tws,2013-06-20 22:22:00,
2013-06-20 18:27:00,70.1,67.3,29.97,North,-999,-999.0,-999.0,90,0.00,,,0.00,tws,2013-06-20 22:27:00,
2013-06-20 18:32:00,70.1,67.5,29.98,North,-999,-999.0,-999.0,91,0.00,,,0.00,tws,2013-06-20 22:32:00,
2013-06-20 18:37:00,70.0,67.5,29.98,North,-999,-999.0,-999.0,91,0.00,,,0.00,tws,2013-06-20 22:37:00,
2013-06-20 18:42:00,69.9,67.4,29.98,North,-999,-999.0,-999.0,91,0.00,,,0.00,tws,2013-06-20 22:42:00,
2013-06-20 18:47:00,69.8,67.3,29.98,North,-999,-999.0,-999.0,91,0.00,,,0.00,tws,2013-06-20 22:47:00,
2013-06-20 18:52:00,69.7,67.4,29.98,North,-999,-999.0,-999.0,92,0.00,,,0.00,tws,2013-06-20 22:52:00,
2013-06-20 18:57:00,69.5,67.2,29.98,North,-999,-999.0,-999.0,92,0.00,,,0.00,tws,2013-06-20 22:57:00,
2013-06-20 19:02:00,69.4,67.2,29.98,North,-999,-999.0,-999.0,92,0.00,,,0.00,tws,2013-06-20 23:02:00,
2013-06-20 19:07:00,69.4,67.2,29.99,North,-999,-999.0,-999.0,92,0.00,,,0.00,tws,2013-06-20 23:07:00,
2013-06-20 19:12:00,69.4,67.3,29.99,North,-999,-999.0,-999.0,93,0.00,,,0.00,tws,2013-06-20 23:12:00,
2013-06-20 19:17:00,69.5,67.4,29.99,North,-999,-999.0,-999.0,92,0.00,,,0.00,tws,2013-06-20 23:17:00,
2013-06-20 19:22:00,69.6,67.5,29.99,North,-999,-999.0,-999.0,92,0.00,,,0.00,tws,2013-06-20 23:22:00,
2013-06-20 19:27:00,69.8,67.6,29.99,North,-999,-999.0,-999.0,92,0.00,,,0.00,tws,2013-06-20 23:27:00,
2013-06-20 19:32:00,69.9,67.6,29.99,North,-999,-999.0,-999.0,92,0.00,,,0.00,tws,2013-06-20 23:32:00,
2013-06-20 19:37:00,69.9,67.6,29.99,North,-999,-999.0,-999.0,92,0.00,,,0.00,tws,2013-06-20 23:37:00,
2013-06-20 19:42:00,69.8,67.6,29.99,North,-999,-999.0,-999.0,92,0.00,,,0.00,tws,2013-06-20 23:42:00,
2013-06-20 19:47:00,69.8,67.6,29.99,North,-999,-999.0,-999.0,92,0.00,,,0.00,tws,2013-06-20 23:47:00,
2013-06-20 19:52:00,69.7,67.3,29.99,North,-999,-999.0,-999.0,92,0.00,,,0.00,tws,2013-06-20 23:52:00,
2013-06-20 19:57:00,69.6,67.2,29.99,North,-999,-999.0,-999.0,92,0.00,,,0.00,tws,2013-06-20 23:57:00,
2013-06-20 20:02:00,69.6,67.2,29.99,North,-999,-999.0,-999.0,92,0.00,,,0.00,tws,2013-06-21 00:02:00,
2013-06-20 20:07:00,69.5,67.3,29.99,North,-999,-999.0,-999.0,92,0.00,,,0.00,tws,2013-06-21 00:07:00,
2013-06-20 20:12:00,69.3,67.3,29.99,North,-999,-999.0,-999.0,93,0.00,,,0.00,tws,2013-06-21 00:12:00,
2013-06-20 20:17:00,69.1,67.2,29.99,North,-999,-999.0,-999.0,93,0.00,,,0.00,tws,2013-06-21 00:17:00,
2013-06-20 20:22:00,69.0,67.0,29.99,North,-999,-999.0,-999.0,93,0.00,,,0.00,tws,2013-06-21 00:22:00,
2013-06-20 20:27:00,68.8,66.9,29.99,North,-999,-999.0,-999.0,93,0.00,,,0.00,tws,2013-06-21 00:27:00,
2013-06-20 20:32:00,68.6,66.8,29.99,North,-999,-999.0,-999.0,94,0.00,,,0.00,tws,2013-06-21 00:32:00,
2013-06-20 20:37:00,68.4,66.6,29.99,North,-999,-999.0,-999.0,94,0.00,,,0.00,tws,2013-06-21 00:37:00,
2013-06-20 20:47:00,68.1,66.5,30.00,North,-999,-999.0,-999.0,94,0.00,,,0.00,tws,2013-06-21 00:47:00,
2013-06-20 20:52:00,68.0,66.4,30.00,North,-999,-999.0,-999.0,94,0.00,,,0.00,tws,2013-06-21 00:52:00,
2013-06-20 20:57:00,67.9,66.4,30.00,North,-999,-999.0,-999.0,95,0.00,,,0.00,tws,2013-06-21 00:57:00,
2013-06-20 21:02:00,67.8,66.3,30.00,North,-999,-999.0,-999.0,95,0.00,,,0.00,tws,2013-06-21 01:02:00,
2013-06-20 21:07:00,67.7,66.3,30.00,North,-999,-999.0,-999.0,95,0.00,,,0.00,tws,2013-06-21 01:07:00,
2013-06-20 21:12:00,67.6,66.3,30.01,North,-999,-999.0,-999.0,95,0.00,,,0.00,tws,2013-06-21 01:12:00,
2013-06-20 21:17:00,67.5,66.2,30.00,North,-999,-999.0,-999.0,95,0.00,,,0.00,tws,2013-06-21 01:17:00,
2013-06-20 21:22:00,67.4,66.1,30.01,North,-999,-999.0,-999.0,95,0.00,,,0.00,tws,2013-06-21 01:22:00,
2013-06-20 21:27:00,67.3,66.1,30.01,North,-999,-999.0,-999.0,95,0.00,,,0.00,tws,2013-06-21 01:27:00,
2013-06-20 21:32:00,67.2,66.0,30.01,North,-999,-999.0,-999.0,95,0.00,,,0.00,tws,2013-06-21 01:32:00,
2013-06-20 21:37:00,67.2,66.0,30.01,North,-999,-999.0,-999.0,96,0.00,,,0.00,tws,2013-06-21 01:37:00,
2013-06-20 21:42:00,67.2,66.0,30.01,North,-999,-999.0,-999.0,95,0.00,,,0.00,tws,2013-06-21 01:42:00,
2013-06-20 21:47:00,67.2,66.0,30.02,North,-999,-999.0,-999.0,95,0.00,,,0.00,tws,2013-06-21 01:47:00,
2013-06-20 21:52:00,67.1,66.0,30.02,North,-999,-999.0,-999.0,96,0.00,,,0.00,tws,2013-06-21 01:52:00,
2013-06-20 21:57:00,67.1,65.9,30.02,North,-999,-999.0,-999.0,95,0.00,,,0.00,tws,2013-06-21 01:57:00,
2013-06-20 22:02:00,67.1,65.9,30.02,North,-999,-999.0,-999.0,95,0.00,,,0.00,tws,2013-06-21 02:02:00,
2013-06-20 22:07:00,67.0,65.8,30.02,North,-999,-999.0,-999.0,95,0.00,,,0.00,tws,2013-06-21 02:07:00,
2013-06-20 22:12:00,67.0,65.8,30.02,North,-999,-999.0,-999.0,95,0.00,,,0.00,tws,2013-06-21 02:12:00,
2013-06-20 22:17:00,66.9,65.7,30.02,North,-999,-999.0,-999.0,95,0.00,,,0.00,tws,2013-06-21 02:17:00,
2013-06-20 22:22:00,66.9,65.7,30.02,North,-999,-999.0,-999.0,96,0.00,,,0.00,tws,2013-06-21 02:22:00,
2013-06-20 22:27:00,66.8,65.7,30.02,North,-999,-999.0,-999.0,96,0.00,,,0.00,tws,2013-06-21 02:27:00,
2013-06-20 22:32:00,66.8,65.6,30.02,North,-999,-999.0,-999.0,96,0.00,,,0.00,tws,2013-06-21 02:32:00,
2013-06-20 22:37:00,66.7,65.5,30.02,North,-999,-999.0,-999.0,96,0.00,,,0.00,tws,2013-06-21 02:37:00,
2013-06-20 22:42:00,66.6,65.5,30.03,North,-999,-999.0,-999.0,96,0.00,,,0.00,tws,2013-06-21 02:42:00,
2013-06-20 22:47:00,66.5,65.4,30.03,North,-999,-999.0,-999.0,96,0.00,,,0.00,tws,2013-06-21 02:47:00,
2013-06-20 22:52:00,66.4,65.4,30.03,North,-999,-999.0,-999.0,96,0.00,,,0.00,tws,2013-06-21 02:52:00,
2013-06-20 22:57:00,66.4,65.3,30.03,North,-999,-999.0,-999.0,96,0.00,,,0.00,tws,2013-06-21 02:57:00,
2013-06-20 23:02:00,66.3,65.2,30.03,North,-999,-999.0,-999.0,96,0.00,,,0.00,tws,2013-06-21 03:02:00,
2013-06-20 23:07:00,66.2,65.2,30.03,North,-999,-999.0,-999.0,96,0.00,,,0.00,tws,2013-06-21 03:07:00,
2013-06-20 23:12:00,66.2,65.1,30.03,North,-999,-999.0,-999.0,96,0.00,,,0.00,tws,2013-06-21 03:12:00,
2013-06-20 23:17:00,66.1,65.0,30.03,North,-999,-999.0,-999.0,96,0.00,,,0.00,tws,2013-06-21 03:17:00,
2013-06-20 23:27:00,66.0,65.0,30.03,North,-999,-999.0,-999.0,96,0.00,,,0.00,tws,2013-06-21 03:27:00,
2013-06-20 23:32:00,65.9,64.9,30.03,North,-999,-999.0,-999.0,96,0.00,,,0.00,tws,2013-06-21 03:32:00,
2013-06-20 23:37:00,65.9,64.9,30.03,North,-999,-999.0,-999.0,96,0.00,,,0.00,tws,2013-06-21 03:37:00,
2013-06-20 23:42:00,65.8,64.8,30.03,North,-999,-999.0,-999.0,96,0.00,,,0.00,tws,2013-06-21 03:42:00,
2013-06-20 23:47:00,65.7,64.7,30.03,North,-999,-999.0,-999.0,96,0.00,,,0.00,tws,2013-06-21 03:47:00,
2013-06-20 23:52:00,65.6,64.6,30.03,North,-999,-999.0,-999.0,96,0.00,,,0.00,tws,2013-06-21 03:52:00,
2013-06-20 23:57:00,65.4,64.5,30.03,North,-999,-999.0,-999.0,96,0.00,,,0.00,tws,2013-06-21 03:57:00,